N3MFL Weather Reports


time (UTC)temp
F
wind
direction
speed
knots
gust
knots
rain 1hr
in
rain 24hr
in
rain mn
in
humidity
%
barometer
mb
20260507040600 56 220 0.9 0.9 0.00 0.00 0.00 96 1007.7
20260507040057 56 174 0.0 0.9 0.00 0.00 0.00 96 1007.8
20260507035553 56 205 0.9 0.9 0.00 0.02 0.02 96 1007.7
20260507035049 56 190 0.0 0.0 0.00 0.02 0.02 96 1007.6
20260507034546 56 205 0.9 0.9 0.00 0.02 0.02 96 1007.8
20260507034044 56 196 0.9 0.9 0.00 0.02 0.02 96 1007.6
20260507033542 56 200 0.9 1.7 0.00 0.02 0.02 96 1008.0
20260507033039 56 220 0.9 1.7 0.00 0.02 0.02 96 1008.0
20260507032535 56 235 0.9 0.9 0.00 0.02 0.02 96 1008.1
20260507032032 56 242 1.7 1.7 0.00 0.02 0.02 96 1008.2
20260507031528 56 199 0.9 1.7 0.00 0.02 0.02 96 1008.0
20260507031026 56 198 0.0 0.9 0.00 0.02 0.02 96 1007.9
20260507030522 56 232 0.9 0.9 0.00 0.02 0.02 96 1007.9
20260507030020 56 187 0.9 0.9 0.00 0.02 0.02 96 1008.0
20260507025516 56 231 0.9 0.9 0.00 0.02 0.02 96 1007.9
20260507025014 56 218 1.7 1.7 0.00 0.02 0.02 96 1007.9
20260507024512 56 211 0.9 1.7 0.00 0.02 0.02 96 1007.8
20260507024008 56 211 1.7 2.6 0.00 0.02 0.02 96 1007.9
20260507023504 56 221 1.7 2.6 0.00 0.02 0.02 96 1007.9
20260507023001 56 231 1.7 2.6 0.00 0.02 0.02 96 1008.1
20260507022458 56 244 1.7 1.7 0.00 0.02 0.02 96 1008.2
20260507021954 56 244 1.7 1.7 0.00 0.02 0.02 96 1007.8
20260507021450 56 221 1.7 1.7 0.00 0.02 0.02 96 1007.9
20260507020947 56 191 2.6 2.6 0.00 0.02 0.02 96 1008.1
20260507020444 56 239 1.7 1.7 0.00 0.02 0.02 96 1008.0
20260507015941 56 168 0.9 1.7 0.00 0.02 0.02 96 1008.2
20260507015439 56 188 0.0 0.9 0.00 0.02 0.02 96 1008.1
20260507014936 56 220 1.7 3.5 0.00 0.02 0.02 95 1008.0
20260507014433 56 184 1.7 1.7 0.00 0.02 0.02 95 1008.0
20260507013929 56 240 2.6 3.5 0.00 0.02 0.02 95 1008.2
20260507013426 56 212 0.9 1.7 0.00 0.02 0.02 95 1008.1
20260507012923 56 207 1.7 1.7 0.00 0.02 0.02 95 1008.1
20260507012420 56 216 1.7 1.7 0.00 0.02 0.02 95 1008.3
20260507011917 56 201 1.7 1.7 0.00 0.02 0.02 96 1008.3
20260507011414 56 236 1.7 1.7 0.00 0.02 0.02 96 1008.5
20260507010913 56 244 1.7 1.7 0.00 0.02 0.02 96 1008.3
20260507010409 56 202 1.7 1.7 0.00 0.02 0.02 96 1008.5
20260507005906 56 194 1.7 1.7 0.00 0.02 0.02 96 1008.5
20260507005403 56 147 1.7 2.6 0.00 0.02 0.02 96 1008.5
20260507004900 56 207 1.7 1.7 0.00 0.02 0.02 96 1008.3
20260507004357 56 251 1.7 2.6 0.00 0.02 0.02 96 1008.4
20260507003854 56 185 1.7 1.7 0.00 0.02 0.02 96 1008.4
20260507003349 56 232 1.7 1.7 0.00 0.02 0.02 96 1008.6
20260507002844 56 250 1.7 1.7 0.00 0.02 0.02 96 1008.3
20260507002341 56 170 0.0 0.0 0.00 0.02 0.02 96 1008.4
20260507001838 56 213 1.7 1.7 0.00 0.02 0.02 96 1008.4
20260507001335 56 251 1.7 2.6 0.00 0.02 0.02 96 1008.5
20260507000831 56 257 0.9 0.9 0.00 0.02 0.02 96 1008.3
20260507000328 56 163 3.5 5.2 0.00 0.02 0.02 96 1008.4
20260506235824 56 187 1.7 2.6 0.00 0.02 0.02 96 1008.4
20260506235320 56 206 1.7 1.7 0.00 0.02 0.02 96 1008.3
20260506234816 56 201 1.7 1.7 0.00 0.02 0.02 96 1008.4
20260506234314 55 238 1.7 2.6 0.00 0.02 0.02 96 1008.3
20260506233812 55 244 2.6 2.6 0.00 0.02 0.02 96 1008.3
20260506233307 55 210 2.6 2.6 0.00 0.02 0.02 96 1008.0
20260506232804 55 214 2.6 2.6 0.00 0.02 0.02 96 1008.2
20260506232300 55 208 1.7 1.7 0.00 0.02 0.02 95 1008.3
20260506231757 55 196 2.6 3.5 0.00 0.02 0.02 95 1008.3
20260506231255 55 200 3.5 3.5 0.00 0.02 0.02 95 1008.3
20260506230752 55 218 1.7 2.6 0.00 0.02 0.02 95 1008.6
20260506230249 55 219 1.7 2.6 0.00 0.02 0.02 95 1008.5
20260506225745 55 256 0.9 1.7 0.00 0.02 0.02 95 1008.4
20260506225242 55 211 1.7 1.7 0.00 0.02 0.02 95 1008.3
20260506224738 55 211 5.2 6.1 0.00 0.02 0.02 95 1008.4
20260506224236 55 194 4.3 5.2 0.07 0.02 0.02 94 1008.1
20260506223732 56 194 0.9 0.9 0.07 0.02 0.02 94 1008.2
20260506223228 56 191 2.6 2.6 0.00 0.01 0.01 94 1008.1
20260506222725 56 230 3.5 3.5 0.00 0.01 0.01 94 1008.4
20260506222220 56 231 2.6 2.6 0.00 0.01 0.01 94 1008.3
20260506221719 56 225 2.6 2.6 0.00 0.01 0.01 94 1008.3
20260506221217 56 215 1.7 2.6 0.00 0.01 0.01 94 1008.4
20260506220714 56 233 1.7 1.7 0.00 0.01 0.01 94 1008.7
20260506220208 56 209 0.9 1.7 0.00 0.01 0.01 94 1008.8
20260506215705 56 225 4.3 6.1 0.00 0.01 0.01 94 1008.8
20260506215200 56 219 1.7 2.6 0.00 0.01 0.01 94 1008.9
20260506214657 56 242 1.7 3.5 0.00 0.01 0.01 94 1008.8
20260506214155 56 243 2.6 3.5 0.00 0.01 0.01 93 1008.4
20260506213653 56 203 3.5 5.2 0.00 0.01 0.01 93 1008.7
20260506213150 57 252 3.5 5.2 0.00 0.01 0.01 92 1008.9
20260506212647 57 250 2.6 3.5 0.00 0.01 0.01 92 1008.8
20260506212142 57 264 2.6 3.5 0.00 0.01 0.01 92 1008.8
20260506211638 57 247 2.6 3.5 0.00 0.01 0.01 92 1008.9
20260506211135 57 205 3.5 5.2 0.00 0.01 0.01 92 1008.9
20260506210632 57 212 2.6 3.5 0.00 0.01 0.01 91 1008.9
20260506210129 57 182 3.5 5.2 0.00 0.01 0.01 91 1009.0
20260506205626 58 252 3.5 5.2 0.00 0.01 0.01 90 1009.1
20260506205126 58 180 2.6 2.6 0.00 0.01 0.01 90 1008.8
20260506204624 58 249 2.6 2.6 0.00 0.01 0.01 90 1009.3
20260506204121 58 208 2.6 3.5 0.00 0.01 0.01 90 1009.1
20260506203619 58 195 1.7 2.6 0.00 0.01 0.01 90 1009.0
20260506203115 58 218 1.7 2.6 0.00 0.01 0.01 90 1009.2
20260506202613 58 218 1.7 2.6 0.00 0.01 0.01 90 1009.3
20260506202109 58 231 3.5 3.5 0.00 0.01 0.01 90 1009.3
20260506201607 58 247 2.6 2.6 0.00 0.01 0.01 90 1009.3
20260506201103 58 220 2.6 2.6 0.00 0.01 0.01 90 1009.3
20260506200559 59 214 3.5 6.1 0.00 0.01 0.01 90 1009.4
20260506200056 59 248 3.5 5.2 0.00 0.01 0.01 90 1009.5
20260506195553 59 173 2.6 2.6 0.07 0.01 0.01 90 1009.3
20260506195049 59 222 2.6 2.6 0.07 0.01 0.01 89 1009.4
20260506194547 59 246 2.6 2.6 0.00 0.00 0.00 88 1009.6
20260506194043 60 191 4.3 5.2 0.00 0.00 0.00 87 1009.7
20260506193541 60 201 2.6 2.6 0.00 0.00 0.00 86 1009.6
20260506193038 61 251 3.5 3.5 0.00 0.00 0.00 84 1009.8
20260506192535 62 265 5.2 7.8 0.00 0.00 0.00 81 1009.6
20260506192031 62 269 2.6 2.6 0.00 0.00 0.00 79 1009.7
20260506191527 63 246 2.6 3.5 0.00 0.00 0.00 77 1009.7
20260506191024 63 186 2.6 3.5 0.00 0.00 0.00 76 1009.7
20260506190521 63 194 0.9 1.7 0.00 0.00 0.00 76 1009.5
20260506190019 63 195 3.5 3.5 0.00 0.00 0.00 76 1009.7
20260506185515 63 206 2.6 3.5 0.00 0.00 0.00 76 1009.9
20260506185011 62 232 3.5 3.5 0.00 0.00 0.00 76 1009.7
20260506184509 63 249 1.7 2.6 0.00 0.00 0.00 76 1009.8
20260506184006 62 221 1.7 2.6 0.00 0.00 0.00 76 1009.9
20260506183501 63 212 1.7 2.6 0.00 0.00 0.00 76 1009.8
20260506182959 63 250 2.6 2.6 0.00 0.00 0.00 75 1010.0
20260506182456 63 213 3.5 8.7 0.00 0.00 0.00 75 1010.1
20260506181953 64 200 1.7 1.7 0.00 0.00 0.00 74 1010.0
20260506181451 64 225 3.5 3.5 0.00 0.00 0.00 74 1010.1
20260506180948 64 259 3.5 7.0 0.00 0.00 0.00 74 1010.1
20260506180444 64 214 3.5 6.1 0.00 0.00 0.00 73 1010.0
20260506175941 65 238 5.2 7.0 0.00 0.00 0.00 72 1010.1
20260506175437 65 232 3.5 3.5 0.00 0.00 0.00 72 1010.1
20260506174934 66 205 2.6 3.5 0.00 0.00 0.00 71 1010.3
20260506174432 66 241 4.3 6.1 0.00 0.00 0.00 70 1010.3
20260506173929 66 203 3.5 3.5 0.00 0.00 0.00 71 1010.2
20260506173426 66 215 5.2 6.1 0.00 0.00 0.00 70 1010.5
20260506172917 66 220 2.6 2.6 0.00 0.00 0.00 70 1010.7
20260506172414 66 215 5.2 6.1 0.00 0.00 0.00 70 1010.6
20260506171911 66 242 3.5 5.2 0.00 0.00 0.00 71 1010.7
20260506171408 66 260 3.5 6.1 0.00 0.00 0.00 71 1010.8
20260506170906 66 222 4.3 7.0 0.00 0.00 0.00 70 1010.5
20260506170402 66 274 4.3 7.0 0.00 0.00 0.00 71 1010.5
20260506165900 66 212 2.6 5.2 0.00 0.00 0.00 70 1010.7
20260506165359 66 212 3.5 6.1 0.00 0.00 0.00 69 1010.7
20260506164854 66 260 5.2 7.8 0.00 0.00 0.00 69 1010.8
20260506164351 67 173 3.5 6.1 0.00 0.00 0.00 69 1011.0
20260506163849 66 231 1.7 2.6 0.00 0.00 0.00 69 1011.0
20260506163343 66 225 6.1 8.7 0.00 0.00 0.00 70 1011.2
20260506162839 66 227 2.6 2.6 0.00 0.00 0.00 70 1011.1
20260506162337 66 208 3.5 3.5 0.00 0.00 0.00 70 1011.1
20260506161834 66 223 2.6 2.6 0.00 0.00 0.00 70 1011.2
20260506161331 66 230 1.7 2.6 0.00 0.00 0.00 69 1011.3
20260506160829 66 212 3.5 5.2 0.00 0.00 0.00 69 1011.3
20260506160325 66 230 4.3 6.1 0.00 0.00 0.00 69 1011.2
20260506155824 66 216 5.2 6.1 0.00 0.00 0.00 68 1011.4
20260506155321 66 185 3.5 5.2 0.00 0.00 0.00 69 1011.4
20260506153433 67 141 4.3 6.1 0.00 0.00 0.00 69 1011.7
20260506152930 67 248 3.5 6.1 0.00 0.00 0.00 68 1011.8
20260506152427 66 232 3.5 5.2 0.00 0.00 0.00 69 1011.7
20260506151926 65 225 3.5 3.5 0.00 0.00 0.00 71 1011.7
20260506151422 65 210 5.2 7.0 0.00 0.00 0.00 71 1011.7
20260506150920 65 212 7.0 9.6 0.00 0.00 0.00 70 1011.8
20260506150416 65 258 2.6 3.5 0.00 0.00 0.00 72 1012.1
20260506145913 65 176 1.7 1.7 0.00 0.00 0.00 72 1011.9
20260506145409 65 191 4.3 6.1 0.00 0.00 0.00 71 1011.8
20260506144907 64 263 3.5 5.2 0.00 0.00 0.00 73 1011.8
20260506144403 64 204 3.5 3.5 0.00 0.00 0.00 72 1011.8
20260506143902 64 236 6.1 7.8 0.00 0.00 0.00 72 1011.8
20260506143358 64 250 2.6 2.6 0.00 0.00 0.00 73 1011.7
20260506142857 65 241 4.3 6.1 0.00 0.00 0.00 72 1011.8
20260506142354 65 205 2.6 2.6 0.00 0.00 0.00 71 1011.8
20260506141852 66 222 2.6 2.6 0.00 0.00 0.00 70 1012.0
20260506141350 65 220 2.6 2.6 0.00 0.00 0.00 71 1011.8
20260506140848 65 161 5.2 6.1 0.00 0.00 0.00 71 1011.6
20260506140344 65 122 3.5 5.2 0.00 0.00 0.00 72 1011.6
20260506135841 65 177 1.7 2.6 0.00 0.00 0.00 72 1011.5
20260506135338 65 167 4.3 5.2 0.00 0.00 0.00 71 1011.9
20260506134834 66 223 5.2 6.1 0.00 0.00 0.00 70 1011.9
20260506134331 65 221 1.7 2.6 0.00 0.00 0.00 72 1011.9
20260506133828 66 198 2.6 2.6 0.00 0.00 0.00 71 1012.1
20260506133325 64 234 2.6 2.6 0.00 0.00 0.00 73 1012.4
20260506132821 64 250 2.6 3.5 0.00 0.00 0.00 74 1012.4
20260506132319 64 241 3.5 5.2 0.00 0.00 0.00 73 1012.2
20260506131817 63 227 1.7 1.7 0.00 0.00 0.00 75 1012.4
20260506131312 63 244 4.3 7.0 0.00 0.00 0.00 75 1012.3
20260506130810 63 240 2.6 3.5 0.00 0.00 0.00 76 1012.2
20260506130306 62 240 2.6 2.6 0.00 0.00 0.00 77 1012.3
20260506125804 62 241 3.5 3.5 0.00 0.00 0.00 77 1012.5
20260506125305 61 201 0.0 0.9 0.00 0.00 0.00 79 1012.2
20260506124800 61 218 3.5 3.5 0.00 0.00 0.00 79 1012.2
20260506124257 61 216 3.5 6.1 0.00 0.00 0.00 79 1012.2
20260506123755 60 226 2.6 2.6 0.00 0.00 0.00 80 1012.2
20260506123253 61 198 1.7 2.6 0.00 0.00 0.00 80 1012.2
20260506122750 61 229 2.6 3.5 0.00 0.00 0.00 79 1012.2
20260506122247 61 189 4.3 5.2 0.00 0.00 0.00 79 1011.9
20260506121745 60 207 6.1 7.0 0.00 0.00 0.00 80 1012.2
20260506121241 60 251 1.7 1.7 0.00 0.00 0.00 81 1012.3
20260506120739 60 176 3.5 3.5 0.00 0.00 0.00 82 1012.6
20260506120237 59 221 0.0 0.9 0.00 0.00 0.00 84 1012.5
20260506115734 58 183 0.9 0.9 0.00 0.00 0.00 85 1012.7
20260506115232 58 217 1.7 1.7 0.00 0.00 0.00 85 1012.7
20260506114730 58 235 3.5 3.5 0.00 0.00 0.00 85 1012.6
20260506114227 59 244 1.7 2.6 0.00 0.00 0.00 84 1012.6
20260506113725 58 206 1.7 2.6 0.00 0.00 0.00 85 1012.6
20260506113223 58 209 3.5 5.2 0.00 0.00 0.00 85 1012.5
20260506112719 58 164 0.9 1.7 0.00 0.00 0.00 86 1012.7
20260506112217 58 209 3.5 3.5 0.00 0.00 0.00 86 1012.8
20260506111714 57 222 1.7 1.7 0.00 0.00 0.00 87 1012.8
20260506111212 57 190 1.7 1.7 0.00 0.00 0.00 87 1012.8
20260506110708 57 207 4.3 5.2 0.00 0.00 0.00 87 1012.8
20260506110206 57 253 2.6 3.5 0.00 0.00 0.00 88 1012.8
20260506105703 57 202 1.7 1.7 0.00 0.00 0.00 88 1012.7
20260506105159 57 217 1.7 1.7 0.00 0.00 0.00 87 1012.7
20260506104658 57 224 2.6 3.5 0.00 0.00 0.00 87 1012.6
20260506104155 57 233 1.7 2.6 0.00 0.00 0.00 88 1012.7
20260506103652 57 243 1.7 1.7 0.00 0.00 0.00 88 1012.4
20260506103149 57 192 1.7 1.7 0.00 0.00 0.00 89 1012.6
20260506102647 57 246 2.6 3.5 0.00 0.00 0.00 89 1012.6
20260506102144 57 228 1.7 1.7 0.00 0.00 0.00 89 1012.6
20260506101641 57 206 1.7 1.7 0.00 0.00 0.00 89 1012.7
20260506101138 57 214 2.6 3.5 0.00 0.00 0.00 89 1012.5
20260506100636 57 209 0.9 1.7 0.00 0.00 0.00 89 1012.4
20260506100133 57 260 2.6 3.5 0.00 0.00 0.00 89 1012.2
20260506095632 57 267 0.9 1.7 0.00 0.00 0.00 89 1012.2
20260506095128 57 240 1.7 2.6 0.00 0.00 0.00 88 1012.3
20260506094626 57 197 1.7 2.6 0.00 0.00 0.00 88 1012.2
20260506094123 57 259 3.5 5.2 0.00 0.00 0.00 88 1012.3
20260506093622 57 237 2.6 2.6 0.00 0.00 0.00 88 1012.2
20260506093119 57 200 0.9 0.9 0.00 0.00 0.00 87 1012.4
20260506092617 57 230 1.7 2.6 0.00 0.00 0.00 87 1012.5
20260506092114 57 199 0.9 0.9 0.00 0.00 0.00 87 1012.4
20260506091612 57 192 1.7 1.7 0.00 0.00 0.00 86 1012.4
20260506091109 58 231 1.7 1.7 0.00 0.00 0.00 86 1012.4
20260506090607 58 254 0.9 1.7 0.00 0.00 0.00 86 1012.4
20260506085600 58 204 3.5 3.5 0.00 0.00 0.00 86 1012.4
20260506085056 58 186 1.7 1.7 0.00 0.00 0.00 86 1012.7
20260506084553 58 245 2.6 2.6 0.00 0.00 0.00 85 1012.5
20260506084049 58 212 3.5 3.5 0.00 0.00 0.00 85 1012.6
20260506083546 58 198 0.9 1.7 0.00 0.00 0.00 85 1012.6
20260506083043 58 251 1.7 2.6 0.00 0.00 0.00 85 1012.7
20260506082540 58 185 1.7 1.7 0.00 0.00 0.00 85 1012.7
20260506082036 58 212 3.5 3.5 0.00 0.00 0.00 85 1012.6
20260506081534 58 274 1.7 1.7 0.00 0.00 0.00 85 1012.6
20260506081031 58 212 0.9 1.7 0.00 0.00 0.00 85 1012.7
20260506080529 58 224 0.9 1.7 0.00 0.00 0.00 85 1012.8
20260506073512 58 232 1.7 2.6 0.00 0.00 0.00 85 1012.6
20260506073009 58 235 3.5 3.5 0.00 0.00 0.00 85 1012.5
20260506072506 58 246 1.7 2.6 0.00 0.00 0.00 85 1012.9
20260506072004 58 247 1.7 1.7 0.00 0.00 0.00 85 1012.6
20260506071502 58 217 1.7 1.7 0.00 0.00 0.00 85 1012.7
20260506070959 58 247 1.7 1.7 0.00 0.00 0.00 84 1012.6
20260506070456 58 211 1.7 2.6 0.00 0.00 0.00 84 1012.7
20260506062433 59 167 0.9 0.9 0.00 0.00 0.00 82 1012.7
20260506061929 59 211 1.7 1.7 0.00 0.00 0.00 81 1012.4
20260506061426 59 208 1.7 1.7 0.00 0.00 0.00 81 1012.7
20260506060924 59 263 1.7 2.6 0.00 0.00 0.00 81 1012.6
20260506060422 59 205 2.6 5.2 0.00 0.00 0.00 80 1012.5
20260506051354 58 170 2.6 3.5 0.00 0.00 0.00 80 1013.0
20260506050851 58 247 3.5 5.2 0.00 0.00 0.00 80 1013.0
20260506050349 58 236 2.6 2.6 0.00 0.00 0.00 80 1013.0
20260506044839 58 257 0.9 2.6 0.00 0.00 0.00 80 1013.3
20260506044337 58 221 1.7 2.6 0.00 0.00 0.00 80 1013.1
20260506043833 58 222 3.5 3.5 0.00 0.00 0.00 80 1013.4
20260506043331 58 197 2.6 3.5 0.00 0.00 0.00 80 1013.2
20260506042829 58 216 2.6 2.6 0.00 0.00 0.00 80 1013.1
20260506042328 58 191 3.5 5.2 0.00 0.00 0.00 79 1013.1
20260506041826 58 242 2.6 2.6 0.00 0.00 0.00 79 1013.0
20260506041323 58 268 1.7 2.6 0.00 0.00 0.00 79 1013.2